#timestamp,LO_Frequency,Hit,StdDev 
1571018415.4,286046998.4,N
1571018435.3,286046998.8,N
1571018455.1,286046997.7,N
1571018475.8,286046996.7,N
1571018495.7,286046997.4,N
1571018515.5,286046993.3,N
1571018535.4,286046995.1,N
1571018555.2,286046996.2,N
1571018575.0,286046995.0,N
1571018575.9,286046995.0,N
1571018595.8,286046994.9,N
1571018615.6,286046997.6,N
1571018635.5,286046997.2,N
1571018655.3,286046997.2,N
1571018675.1,286046997.2,N
1571018695.9,286046999.5,N
1571018715.7,286046999.1,N
1571018735.5,286046999.6,N
1571018755.4,286046999.5,N
1571018775.2,286046996.7,N
1571018795.1,286046997.1,N
1571018796.0,286046997.1,N
1571018815.8,286046996.7,N
1571018835.6,286046997.3,N
1571018855.5,286046994.9,N
1571018875.3,286046997.9,N
1571018895.1,286046997.6,N
1571018915.9,286046997.0,N
1571018935.7,286046997.3,N
1571018955.6,286046995.5,N
1571018975.4,286046995.7,N
1571018995.2,286046995.2,Y
1571019015.1,286047001.2,P
1571019016.0,286047001.2,N
1571019035.8,286046996.8,N
1571019055.7,286046997.1,N
1571019075.5,286047000.7,N
1571019095.3,286046998.3,N
1571019115.2,286046998.7,N
1571019135.9,286046999.3,N
1571019155.7,286047001.2,N
1571019175.6,286046998.7,N
1571019195.4,286047000.6,N
1571019215.3,286047001.0,N
1571019235.1,286047000.3,N
1571019236.0,286047000.3,N
1571019255.8,286047000.6,N
1571019275.7,286046999.7,N
1571019295.5,286046998.5,N
1571019315.3,286046999.9,N
1571019335.2,286047002.8,N
1571019355.0,286047000.4,N
1571019355.9,286047000.4,N
1571019375.8,286047001.0,N
1571019395.6,286046998.2,N
1571019415.4,286047000.3,N
1571019435.3,286047002.3,N
1571019455.1,286047000.8,N
1571019475.8,286047000.4,N
1571019495.7,286047000.2,N
1571019515.5,286046998.2,N
1571019535.4,286046998.5,N
1571019555.2,286046998.6,N
1571019575.0,286046998.6,N
1571019575.9,286046998.6,N
1571019595.8,286047000.4,N
1571019615.6,286046999.9,N
1571019635.5,286047002.3,N
1571019655.3,286046999.7,N
1571019675.1,286047001.3,N
1571019695.9,286047002.4,N
1571019715.7,286047001.4,N
1571019735.5,286047002.3,N
1571019755.4,286047002.3,N
1571019775.2,286047001.3,N
1571019795.1,286047003.2,N
1571019796.0,286047003.2,N
1571019815.8,286047001.8,N
1571019835.6,286047003.8,N
1571019855.5,286047006.0,Y
1571019875.3,286047005.8,P
1571019895.2,286047004.1,N
1571019915.9,286047002.2,N
1571019935.7,286047002.2,N
1571019955.6,286047001.7,N
1571019975.4,286047001.7,N
1571019995.2,286047004.4,N
1571020015.1,286047003.2,N
1571020016.0,286047003.2,N
1571020035.8,286047006.0,Y
1571020055.7,286047002.7,P
1571020075.5,286047000.4,P
1571020095.3,286047000.3,N
1571020115.2,286046998.9,N
1571020135.0,286046999.5,N
1571020135.9,286046999.5,N
1571020155.8,286046999.2,N
1571020175.6,286046999.6,N
1571020195.4,286046999.6,N
1571020215.3,286046999.4,N
1571020235.1,286046999.3,N
1571020255.8,286046999.6,N
1571020275.7,286046996.5,N
1571020295.5,286046998.6,N
1571020315.4,286046999.0,N
1571020335.2,286046999.0,N
1571020355.0,286046997.1,N
1571020355.9,286046997.1,N
1571020375.8,286046997.5,N
1571020395.6,286046995.8,N
1571020415.4,286046996.2,N
1571020435.3,286046995.8,N
1571020455.1,286046994.2,Y
1571020475.9,286046995.3,P
1571020495.7,286046995.0,N
1571020515.5,286046998.0,N
1571020535.4,286046995.3,N
1571020555.2,286046997.0,N
1571020575.1,286046996.5,N
1571020576.0,286046996.5,N
1571020595.8,286046997.3,N
1571020615.6,286046995.2,Y
1571020635.5,286047001.0,P
1571020655.3,286047000.9,N
1571020675.1,286047000.7,N
1571020695.9,286046998.6,N
1571020715.7,286046998.2,N
1571020735.6,286047002.6,N
1571020755.4,286047000.0,N
1571020775.2,286047002.7,N
1571020795.1,286047000.7,N
1571020796.0,286047000.7,N
1571020815.8,286046998.2,N
1571020835.7,286046999.8,N
1571020855.5,286047000.6,N
1571020875.3,286046999.8,N
1571020895.2,286047000.2,N
1571020915.0,286046998.5,N
1571020915.9,286046998.5,N
1571020935.7,286047000.9,N
1571020955.6,286047000.7,N
1571020975.4,286047001.2,N
1571020995.3,286046998.5,N
1571021015.1,286047001.2,N
1571021016.0,286047001.2,N
1571021035.8,286047002.6,N
1571021055.7,286047000.2,N
1571021075.5,286047002.3,N
1571021095.3,286047000.6,N
1571021115.2,286047001.3,N
1571021135.0,286047001.9,N
1571021135.9,286047001.9,N
1571021155.8,286047002.4,N
1571021175.6,286047000.1,N
1571021195.4,286047002.1,N
1571021215.3,286047001.8,N
1571021235.1,286047001.4,N
1571021255.9,286047001.8,N
1571021275.7,286047002.3,N
1571021295.5,286047000.4,N
1571021315.4,286047001.6,N
1571021335.2,286047001.4,N
1571021355.0,286047001.6,N
1571021355.9,286047001.6,N
1571021375.8,286047003.8,Y
1571021395.6,286047002.5,P
1571021415.5,286047000.2,N
1571021435.3,286047000.6,N
1571021455.1,286047000.7,N
1571021475.9,286047000.7,N
1571021495.7,286047000.0,N
1571021515.6,286047001.1,N
1571021535.4,286047000.8,N
1571021555.2,286046998.8,N
1571021575.1,286046998.2,N
1571021576.0,286046998.2,N
1571021595.8,286046999.0,N
1571021615.6,286047001.1,N
1571021635.5,286047000.1,N
1571021655.3,286047000.9,N
1571021675.2,286046998.6,N
1571021695.9,286047001.1,N
1571021715.7,286047000.5,N
1571021735.6,286047000.4,N
1571021755.4,286046999.4,N
1571021775.2,286046999.1,N
1571021795.1,286046997.2,N
1571021796.0,286046997.2,N
1571021815.8,286046999.5,N
1571021835.7,286046997.0,N
1571021855.5,286046998.1,N
1571021875.3,286047001.1,N
1571021895.2,286047002.7,N
1571021915.0,286046998.2,N
1571021915.9,286046998.2,N
1571021965.8,286046999.8,E
1571021975.7,286047002.2,N
1571021995.5,286047000.4,P
